Location: Planegg
(48.1000°N, 11.4170°E)
Time: 17:40:42
(UTC+01:00)

ISS - Visible Passes

Search period start: 27 January 2021 00:00
Search period end: 06 February 2021 00:00
Orbit: 418 x 421 km, 51.6° (Epoch: 28 January)

Date Brightness Start Highest point End Pass type
(mag) Time Alt. Az. Time Alt. Az. Time Alt. Az.
27 Jan -3.3 18:00:17 10° W 18:03:36 50° N 18:06:14 15° ENE visible
27 Jan -1.7 19:37:28 10° WNW 19:39:13 26° NW 19:39:13 26° NW visible
28 Jan -3.2 18:50:04 10° WNW 18:53:21 44° N 18:53:50 41° NNE visible
29 Jan -3.1 18:02:38 10° WNW 18:05:54 43° N 18:08:28 15° ENE visible
29 Jan -1.9 19:39:38 10° WNW 19:41:27 29° WNW 19:41:27 29° WNW visible
30 Jan -3.6 18:52:16 10° WNW 18:55:37 58° NNE 18:56:07 51° NE visible
31 Jan -3.3 18:04:52 10° WNW 18:08:11 49° N 18:10:50 15° E visible
31 Jan -2.0 19:41:45 10° WNW 19:43:49 33° W 19:43:49 33° W visible
01 Feb -3.8 18:54:20 10° WNW 18:57:44 83° SSW 18:58:37 46° ESE visible
02 Feb -3.8 18:06:56 10° WNW 18:10:20 74° NNE 18:13:30 11° ESE visible
02 Feb -1.7 19:44:03 10° W 19:46:30 25° SW 19:46:30 25° SW visible
03 Feb -2.5 18:56:28 10° WNW 18:59:39 39° SSW 19:01:32 20° SSE visible
04 Feb -3.1 18:08:59 10° WNW 18:12:19 58° SSW 18:15:38 10° SE visible
04 Feb -0.7 19:47:29 10° WSW 19:48:32 11° SW 19:49:35 10° SSW visible
05 Feb -1.0 18:59:02 10° W 19:01:20 17° SW 19:03:38 10° S visible
